Weather History for Hugo, OK

Change the Weather History Date:

Sunday, January 13, 2013

  Actual Average Record
Temperature  
Mean Temperature 32 °F -  
Max Temperature 39 °F 48 °F 65 °F (2014)
Min Temperature 25 °F 28 °F 25 °F (2013)
Degree Days  
Heating Degree Days 32    
Moisture  
Dew Point 23 °F    
Average Humidity 70    
Maximum Humidity 90    
Minimum Humidity 48    
Precipitation  
Precipitation 0.00 in - - ()
Sea Level Pressure  
Sea Level Pressure 30.13 in    
Wind  
Wind Speed 14 mph (North)    
Max Wind Speed 20 mph    
Max Gust Speed 26 mph    
Visibility 10 miles    
Events      
Averages and records for this station are not official NWS values.
T = Trace of Precipitation, MM = Missing Value Source: NWS Daily Summary

Daily Weather History Graph

Daily Weather History Graph

Search for Another Location

Airport:

Trip Planner

Search our weather history database for the weather conditions in past years. The results will help you decide how hot, cold, wet, or windy it might be!

Date:

Astronomy

Jan. 13, 2013 Rise Set
Actual Time 7:27 AM CST 5:34 PM CST
Civil Twilight 7:00 AM CST 6:01 PM CST
Nautical Twilight 6:29 AM CST 6:32 PM CST
Astronomical Twilight 5:59 AM CST 7:02 PM CST
Moon 8:34 AM CST (1/13) 8:05 PM CST (1/13)
Length of Visible Light 11h 01m
Length of Day
10h 06m
Waxing Crescent, 5% of the Moon is Illuminated
Jan 13
Waxing Crescent
Jan 18
First Quarter
Jan 26
Full
Feb 3
Last Quarter
Feb 10
New

Hourly Weather History & Observations

Time (CST) Temp. Windchill Dew Point Humidity Pressure Visibility Wind Dir Wind Speed Gust Speed Precip Events Conditions
12:15 AM 35.1 °F 24.5 °F 32.0 °F 89% 29.88 in 10.0 mi NNW 18.4 mph 24.2 mph N/A   Overcast
12:35 AM 34.9 °F 25.3 °F 32.0 °F 89% 29.88 in 10.0 mi North 15.0 mph 20.7 mph N/A   Overcast
12:55 AM 34.9 °F 23.9 °F 32.0 °F 89% 29.90 in 10.0 mi North 19.6 mph 24.2 mph N/A   Overcast
1:15 AM 34.3 °F 24.2 °F 31.8 °F 90% 29.90 in 10.0 mi NNW 16.1 mph 20.7 mph N/A   Overcast
1:35 AM 33.8 °F 23.5 °F 30.7 °F 89% 29.91 in 10.0 mi North 16.1 mph 24.2 mph N/A   Overcast
1:55 AM 32.9 °F 23.2 °F 29.8 °F 88% 29.92 in 10.0 mi North 13.8 mph 26.5 mph N/A   Overcast
2:15 AM 32.5 °F 23.2 °F 29.8 °F 90% 29.94 in 10.0 mi NNW 12.7 mph - N/A   Overcast
2:35 AM 32.2 °F 21.8 °F 29.1 °F 88% 29.98 in 10.0 mi NNW 15.0 mph - N/A   Overcast
2:55 AM 32.0 °F 22.5 °F 28.2 °F 86% 30.00 in 10.0 mi NNW 12.7 mph 18.4 mph N/A   Overcast
3:15 AM 32.0 °F 22.1 °F 28.0 °F 85% 29.98 in 10.0 mi North 13.8 mph 20.7 mph N/A   Overcast
3:35 AM 32.0 °F 21.6 °F 27.9 °F 85% 30.02 in 10.0 mi NNW 15.0 mph 19.6 mph N/A   Overcast
3:55 AM 31.1 °F 19.7 °F 25.3 °F 79% 30.01 in 10.0 mi NNW 17.3 mph 26.5 mph N/A   Overcast
4:15 AM 31.1 °F 20.5 °F 26.1 °F 82% 30.01 in 10.0 mi North 15.0 mph - N/A   Overcast
4:35 AM 30.9 °F 19.8 °F 24.8 °F 78% 29.99 in 10.0 mi North 16.1 mph 23.0 mph N/A   Overcast
4:55 AM 31.1 °F 21.9 °F 25.3 °F 79% 30.02 in 10.0 mi North 11.5 mph 17.3 mph N/A   Overcast
5:15 AM 30.7 °F 22.6 °F 25.3 °F 80% 29.99 in 10.0 mi North 9.2 mph - N/A   Overcast
5:35 AM 31.1 °F 21.9 °F 25.9 °F 81% 30.01 in 10.0 mi NNW 11.5 mph - N/A   Overcast
5:55 AM 31.1 °F 21.4 °F 25.5 °F 80% 30.02 in 10.0 mi NNW 12.7 mph 20.7 mph N/A   Overcast
6:15 AM 30.7 °F 21.4 °F 24.8 °F 79% 30.05 in 10.0 mi NNW 11.5 mph - N/A   Overcast
6:35 AM 30.6 °F 19.8 °F 24.8 °F 79% 30.06 in 10.0 mi NNW 15.0 mph 19.6 mph N/A   Overcast
6:55 AM 30.2 °F 18.9 °F 24.1 °F 78% 30.07 in 10.0 mi North 16.1 mph 21.9 mph N/A   Overcast
7:15 AM 30.0 °F 20.5 °F 23.9 °F 78% 30.10 in 10.0 mi NNW 11.5 mph - N/A   Overcast
7:35 AM 30.2 °F 20.8 °F 23.9 °F 77% 30.13 in 10.0 mi NNW 11.5 mph - N/A   Overcast
7:55 AM 29.8 °F 19.8 °F 24.3 °F 80% 30.13 in 10.0 mi NNW 12.7 mph - N/A   Overcast
8:15 AM 29.7 °F 19.6 °F 24.4 °F 81% 30.14 in 10.0 mi NNW 12.7 mph 21.9 mph N/A   Overcast
8:35 AM 29.7 °F 19.1 °F 24.4 °F 81% 30.14 in 10.0 mi NNW 13.8 mph 20.7 mph N/A   Overcast
8:55 AM 29.3 °F 18.2 °F 23.9 °F 80% 30.16 in 10.0 mi NNW 15.0 mph 20.7 mph N/A   Overcast
9:15 AM 29.5 °F 17.6 °F 23.2 °F 77% 30.17 in 10.0 mi North 17.3 mph 21.9 mph N/A   Mostly Cloudy
9:35 AM 31.1 °F 19.3 °F 23.5 °F 74% 30.17 in 10.0 mi NNW 18.4 mph 21.9 mph N/A   Mostly Cloudy
9:55 AM 31.6 °F 21.6 °F 22.5 °F 69% 30.18 in 10.0 mi NNW 13.8 mph 25.3 mph N/A   Scattered Clouds
10:15 AM 32.4 °F 20.9 °F 22.8 °F 68% 30.18 in 10.0 mi NNW 18.4 mph 23.0 mph N/A   Clear
10:35 AM 32.5 °F 21.2 °F 22.6 °F 67% 30.19 in 10.0 mi NNW 18.4 mph 23.0 mph N/A   Clear
10:55 AM 33.3 °F 23.2 °F 22.8 °F 66% 30.19 in 10.0 mi NNW 15.0 mph 21.9 mph N/A   Clear
11:15 AM 33.4 °F 23.9 °F 22.5 °F 64% 30.19 in 10.0 mi NNW 13.8 mph 20.7 mph N/A   Clear
11:35 AM 34.7 °F 24.0 °F 23.0 °F 62% 30.18 in 10.0 mi NW 18.4 mph 21.9 mph N/A   Clear
11:55 AM 34.7 °F 24.3 °F 22.6 °F 61% 30.18 in 10.0 mi NNW 17.3 mph 21.9 mph N/A   Clear
12:15 PM 35.4 °F 25.3 °F 23.0 °F 61% 30.18 in 10.0 mi NNW 17.3 mph 23.0 mph N/A   Clear
12:55 PM 37.0 °F 28.5 °F 23.4 °F 58% 30.17 in 10.0 mi NNW 13.8 mph - N/A   Clear
1:15 PM 37.6 °F 28.8 °F 22.8 °F 55% 30.17 in 10.0 mi North 15.0 mph 20.7 mph N/A   Clear
1:35 PM 37.9 °F 30.0 °F 22.8 °F 55% 30.17 in 10.0 mi NNW 12.7 mph 19.6 mph N/A   Clear
1:55 PM 38.5 °F 30.3 °F 23.2 °F 54% 30.16 in 10.0 mi North 13.8 mph 21.9 mph N/A   Clear
2:15 PM 38.7 °F 30.9 °F 22.6 °F 53% 30.17 in 10.0 mi North 12.7 mph - N/A   Clear
2:35 PM 39.0 °F 31.4 °F 22.1 °F 51% 30.17 in 10.0 mi North 12.7 mph 17.3 mph N/A   Clear
2:55 PM 38.5 °F 29.6 °F 20.8 °F 49% 30.18 in 10.0 mi North 16.1 mph 20.7 mph N/A   Clear
3:15 PM 38.7 °F 29.8 °F 20.8 °F 49% 30.18 in 10.0 mi North 16.1 mph 20.7 mph N/A   Clear
3:35 PM 38.3 °F 30.9 °F 20.1 °F 48% 30.18 in 10.0 mi North 11.5 mph 19.6 mph N/A   Clear
3:55 PM 38.5 °F 30.7 °F 20.8 °F 49% 30.19 in 10.0 mi North 12.7 mph - N/A   Clear
4:15 PM 37.9 °F 30.5 °F 20.1 °F 49% 30.20 in 10.0 mi North 11.5 mph 16.1 mph N/A   Clear
4:35 PM 37.2 °F 30.0 °F 19.8 °F 49% 30.20 in 10.0 mi North 10.4 mph - N/A   Clear
4:55 PM 36.5 °F 28.7 °F 18.7 °F 49% 30.20 in 10.0 mi North 11.5 mph 16.1 mph N/A   Clear
5:15 PM 35.2 °F 27.6 °F 18.5 °F 51% 30.21 in 10.0 mi North 10.4 mph - N/A   Clear
5:35 PM 33.8 °F 25.8 °F 18.1 °F 53% 30.22 in 10.0 mi North 10.4 mph - N/A   Clear
6:15 PM 32.0 °F 25.6 °F 18.9 °F 58% 30.23 in 10.0 mi North 6.9 mph - N/A   Clear
6:35 PM 31.6 °F 25.1 °F 18.7 °F 59% 30.23 in 10.0 mi North 6.9 mph - N/A   Clear
6:55 PM 30.7 °F 22.6 °F 18.5 °F 60% 30.23 in 10.0 mi North 9.2 mph - N/A   Clear
7:15 PM 30.6 °F 23.1 °F 18.5 °F 61% 30.24 in 10.0 mi North 8.1 mph - N/A   Clear
7:35 PM 29.8 °F 23.0 °F 18.5 °F 63% 30.24 in 10.0 mi North 6.9 mph - N/A   Clear
7:55 PM 29.1 °F 21.3 °F 18.5 °F 65% 30.24 in 10.0 mi North 8.1 mph - N/A   Clear
8:15 PM 28.6 °F 21.5 °F 18.9 °F 67% 30.24 in 10.0 mi North 6.9 mph - N/A   Clear
8:35 PM 28.0 °F 20.8 °F 19.2 °F 70% 30.24 in 10.0 mi North 6.9 mph - N/A   Clear
8:55 PM 27.7 °F 19.6 °F 19.4 °F 71% 30.24 in 10.0 mi North 8.1 mph - N/A   Clear
9:15 PM 27.5 °F 21.1 °F 19.2 °F 71% 30.25 in 10.0 mi North 5.8 mph - N/A   Clear
9:35 PM 27.5 °F 18.6 °F 19.2 °F 71% 30.26 in 10.0 mi North 9.2 mph - N/A   Clear
9:55 PM 27.1 °F 18.9 °F 19.0 °F 72% 30.27 in 10.0 mi North 8.1 mph - N/A   Clear
10:15 PM 27.0 °F 18.0 °F 19.2 °F 73% 30.26 in 10.0 mi North 9.2 mph - N/A   Clear
10:35 PM 27.0 °F 18.7 °F 19.0 °F 72% 30.26 in 10.0 mi North 8.1 mph - N/A   Clear
10:55 PM 26.6 °F 19.1 °F 19.2 °F 74% 30.27 in 10.0 mi North 6.9 mph - N/A   Clear
11:35 PM 26.1 °F 21.9 °F 18.9 °F 74% 30.29 in 10.0 mi NNE 3.5 mph - N/A   Clear
11:55 PM 25.9 °F 19.2 °F 18.9 °F 75% 30.30 in 10.0 mi NNE 5.8 mph - N/A   Clear